OPS 4682 DEB, 38443

Orbit data source: Space-Track

OPS 4682 DEB, 38443 is space debris in LEO originally from a launch on Sat, 03 Apr 1965 UTC launched from the Air Force Western Test Range (AFWTR). Debris objects in space refer to the collection of defunct objects orbiting the Earth. Examples of debris include non-operational satellites, rocket bodies, and fragments generated from explosions, collisions, or faulty payload assembly.

Loading next visibility...
Identifier
38443, 1965-027EY
Orbit
LEO
Country
Flag of USUS
Related business
Manufacturer
Unknown
Mission
Spacecraft
Bus & Motor
Unknown
Mass
Unknown
Launch date (UTC)
1965-04-03 (61 years ago)
Launch vehicle
Unknown
Launch site
Air Force Western Test Range (AFWTR)
Object type
Payload
Rocket body
Debris
Shape & HBR
Unknown shape, 0.1 m
Radar Cross Section
Small (<0.1 m²)

Expand to show TLE details & history
Last TLE update: 18 hours ago

TLE from 18 hours ago
0 OPS 4682 DEB
1 38443U 65027EY  26067.76018634 -.00000362  00000-0 -12114-2 0  9992
2 38443  90.2397   0.9023 0028363 142.4538 217.8572 13.00850343538765
Epoch: 2026-03-08T18:14Z
TLE epoch observation values (Epoch: 2026-03-08T18:14:40.099Z)
Latitude
-0.00008°
Longitude
-79.22764°
Altitude
1,278.77 km
Speed
7.208 km/s
True Right ascension
00h 03m 36s
True Declination
0° 00' 00"
Sunlit
Object was in daylight at epoch
Visualization orbit readout
Latitude
Unknown
Longitude
Unknown
Altitude
Unknown
Speed
Unknown
Apparent Right ascension
Unknown
Apparent Declination
Unknown
Sunlit
N/A
Visualization observer readout
Local Sidereal Time
16:33:52
Azimuth
Unknown
Elevation
Unknown
Doppler factor
Unknown
Orbital elements
Apogee altitude
1,277.535 km
Perigee altitude
1,234.23 km
Semi-major axis
7,634.019 km
Eccentricity
0.00284
Inclination
90.2397°
RAAN
0.9023°
Arg. of periapsis
142.4538°
True anomaly
217.6583°
Mean anomaly
217.8572°
Eccentric anomaly
217.75769°
Mean motion
3.25397 °/min
Orbital period
110.63 mins
BSTAR
-0.0012114
Loading maneuver chart data...
Computing Atmospheric mass density...
Loading historical data...
Loading historical data...
Loading historical data...
Loading historical data...
Loading historical data...
Loading historical data...
Loading historical data...

Documentation

Showing up to 5 results
|